This is the latest recevied weather packets stored in our database for station/object IR4UCA-3. If no packets are shown the sender has not sent any weather packets the latest 1 day(s).
| Time | Temp. | Humidity | Pressure | Rain* | Wind** | Luminosity | Snow |
|---|---|---|---|---|---|---|---|
| 1777999219 | 19.44° C | 83% | 1011.2 hPa | 0 mm | 1.79 m/s, 6° | - | - |
| 1777999089 | 19.44° C | 83% | 1011.1 hPa | 0 mm | 1.79 m/s, 6° | - | - |
| 1777998971 | 19.44° C | 83% | 1011.1 hPa | 0 mm | 2.24 m/s, 314° | - | - |
| 1777998850 | 19.44° C | 83% | 1011 hPa | 0 mm | 2.24 m/s, 10° | - | - |
| 1777998733 | 19.44° C | 83% | 1011.1 hPa | 0 mm | 2.24 m/s, 343° | - | - |
| 1777998623 | 19.44° C | 83% | 1011 hPa | 0 mm | 1.79 m/s, 340° | - | - |
| 1777998494 | 19.44° C | 83% | 1011 hPa | 0 mm | 2.24 m/s, 4° | - | - |
| 1777998372 | 19.44° C | 83% | 1011 hPa | 0 mm | 1.79 m/s, 0° | - | - |
| 1777998246 | 19.44° C | 83% | 1011.2 hPa | 0 mm | 3.13 m/s, 3° | - | - |
| 1777998126 | 19.44° C | 83% | 1011.1 hPa | 0 mm | 2.24 m/s, 0° | - | - |
| 1777998020 | 19.44° C | 84% | 1011.2 hPa | 0 mm | 1.79 m/s, 0° | - | - |
| 1777997890 | 19.44° C | 84% | 1011.2 hPa | 0 mm | 0.89 m/s, 24° | - | - |
| 1777997774 | 19.44° C | 84% | 1011.2 hPa | 0 mm | 1.34 m/s, 4° | - | - |
| 1777997648 | 18.89° C | 83% | 1011.1 hPa | 0 mm | 2.68 m/s, 3° | - | - |
| 1777997530 | 19.44° C | 83% | 1011.1 hPa | 0 mm | 3.13 m/s, 13° | - | - |
| 1777997417 | 19.44° C | 83% | 1011.1 hPa | 0 mm | 3.58 m/s, 8° | - | - |
| 1777997291 | 19.44° C | 84% | 1011.1 hPa | 0 mm | 2.68 m/s, 353° | - | - |
| 1777997171 | 19.44° C | 84% | 1011.2 hPa | 0 mm | 3.13 m/s, 0° | - | - |
| 1777997049 | 19.44° C | 84% | 1011.1 hPa | 0 mm | 2.24 m/s, 0° | - | - |
| 1777996927 | 19.44° C | 83% | 1011.2 hPa | 0 mm | 2.68 m/s, 1° | - | - |
| 1777996845 | 19.44° C | 83% | 1011.1 hPa | 0 mm | 2.68 m/s, 343° | - | - |
| 1777996686 | 19.44° C | 84% | 1011.2 hPa | 0 mm | 2.24 m/s, 347° | - | - |
| 1777996575 | 19.44° C | 84% | 1011.1 hPa | 0 mm | 2.68 m/s, 0° | - | - |
| 1777996446 | 19.44° C | 84% | 1011.2 hPa | 0 mm | 2.24 m/s, 13° | - | - |
| 1777996330 | 19.44° C | 84% | 1011.2 hPa | 0 mm | 1.79 m/s, 21° | - | - |
* Rain latest hour (hover to see other rain measurements)
** Current wind speed in m/s (hover to see current wind gust speed)